Location: Gaast
(52.9002°N, 5.8891°E)
Time: 05:59:15
(UTC+00:00)

Sich 1 Rocket - Pass Details

Date: 18 November 2025
Orbit: 611 x 646 km, 82.5° (Epoch: 11 December)

Event Time Altitude Azimuth Distance (km) Brightness Sun altitude
Rises 18:07:11 0° 186° (S) 2,943 7.2 -22.2°
Reaches altitude 10° 18:09:25 10° 186° (S) 2,041 6.3 -22.5°
Maximum altitude 18:13:57 82° 100° (E) 660 3.5 -23.2°
Enters shadow 18:14:57 55° 21° (NNE) 784 3.8 -23.3°
